Flag for Japan Weather past 2 weeks in Sendai, Japan

Now
77 °F

Partly cloudy.


Feels Like: 79 °F
Forecast: 67 / 81 °F
Wind: 10 mph from Northwest

Location: Sendai Airport

Current Time: Sep 2, 2015 at 8:29:40 PM

Latest Report: Sep 2, 2015 at 7:00 PM


Visibility: N/A

Pressure: 29.80 "Hg

Humidity: 61%

Dew point: 63 °F

Location of SendaiLocation

Historic Weather in Sendai — Graph

°F

Sendai temperature yesterday

Maximum temperature yesterday: 73 °F (at 9:00 AM)
Minimum temperature yesterday: 66 °F (at 6:00 AM)
Average temperature yesterday: 71 °F

Past Weeks' High & Low Weather Summary

 TemperatureHumidityPressure
High90 °F (Sep 2, 1:00 PM)100% (Aug 23, 7:00 AM)30.01 "Hg (Aug 23, 7:00 AM)
Low64 °F (Aug 25, 6:00 AM)43% (Aug 19, 11:00 AM)29.56 "Hg (Aug 22, 10:45 AM)
Average72 °F83%29.85 "Hg
* Reported Aug 18 7:00 PM — Sep 2 7:00 PM, Sendai, Weather by CustomWeather, © 2015

Note: Actual official high and low records may vary slightly from our data, if they occured in-between our weather recording intervals... More about our weather records

Advertising

Sendai weather history for previous 24 hours

 ConditionsComfort  
Time TempWeatherWind HumidityBarometerVisibility
7:00 PM
Wed, Sep 2
77 °FPartly cloudy.10 mph61%29.80 "HgN/A
6:00 PM81 °FPartly sunny.15 mph54%29.77 "HgN/A
5:00 PM82 °FPartly sunny.8 mph51%29.74 "HgN/A
4:00 PM86 °FScattered clouds.16 mph49%29.74 "HgN/A
3:00 PM88 °FPassing clouds.20 mph49%29.71 "HgN/A
2:00 PM90 °FPassing clouds.17 mph49%29.68 "HgN/A
1:00 PM90 °FScattered clouds.13 mph63%29.68 "HgN/A
12:00 PM82 °FScattered clouds.9 mph79%29.71 "HgN/A
11:00 AM79 °FPartly sunny.6 mph84%29.71 "HgN/A
10:00 AM81 °FBroken clouds.6 mph74%29.74 "HgN/A
9:00 AM79 °FPartly sunny.5 mph84%29.77 "HgN/A
8:00 AM75 °FPartly sunny.3 mph89%29.77 "Hg4 mi
7:00 AM72 °FFog.3 mph100%29.77 "Hg1 mi
6:03 AM72 °FFog.2 mph94%29.80 "Hg1 mi
9:00 PM
Tue, Sep 1
73 °FPassing clouds.7 mph89%29.92 "HgN/A
8:00 PM72 °FPartly cloudy.5 mph100%29.92 "HgN/A
Weather by CustomWeather, © 2015

See weather overviewHow to use our weather pages